Location: Hajnówka
(52.7352°N, 23.5693°E)
Time: 05:18:16
(UTC+02:00)

ISS - Visible Passes

Search period start: 28 May 2018 00:00
Search period end: 07 June 2018 00:00
Orbit: 402 x 407 km, 51.6° (Epoch: 28 May)

Date Brightness Start Highest point End Pass type
(mag) Time Alt. Az. Time Alt. Az. Time Alt. Az.
28 May -3.8 22:39:26 10° W 22:42:40 60° SSW 22:45:04 16° ESE visible
29 May -2.0 00:16:09 10° W 00:17:42 19° WSW 00:17:42 19° WSW visible
29 May -3.9 21:47:12 10° W 21:50:29 70° S 21:53:44 10° ESE visible
29 May -3.0 23:23:45 10° W 23:26:43 31° SSW 23:27:06 30° S visible
30 May -3.4 22:31:27 10° W 22:34:35 43° SSW 22:36:31 20° SE visible
31 May -1.3 00:08:52 10° WSW 00:09:08 11° WSW 00:09:08 11° WSW visible
31 May -3.7 21:39:11 10° W 21:42:25 56° SSW 21:45:37 10° ESE visible
31 May -2.2 23:16:00 10° W 23:18:27 19° SW 23:18:35 19° SSW visible
01 Jun -2.7 22:23:31 10° W 22:26:22 28° SSW 22:28:02 18° SSE visible
02 Jun -3.1 21:31:08 10° W 21:34:14 39° SSW 21:37:18 10° SE visible
02 Jun -1.4 23:09:02 10° WSW 23:10:02 11° SW 23:10:09 11° SW visible
03 Jun -1.9 22:15:48 10° WSW 22:18:01 17° SW 22:19:40 12° S visible
